{"data":{"norad_id":55364,"epoch":"2026-09-20T09:50:27.920832Z","epoch_age_seconds":104412,"freshness":"FRESH","line1":"1 55364U 23013AK  26263.41004538 -.00000103  00000+0  57721-5 0  9997","line2":"2 55364  43.0023 287.1185 0001565 253.5713 106.4967 15.27572359201419","mean_motion":15.27572359,"eccentricity":0.0001565,"inclination_deg":43.0023,"raan_deg":287.1185,"arg_perigee_deg":253.5713,"mean_anomaly_deg":106.4967,"bstar":5.7721e-6,"rev_number":20141,"period_min":94.267220241054,"perigee_km":481.99819683311,"apogee_km":484.14575524261,"semimajor_km":6861.2089760379,"source":"CELESTRAK","updated_at":"2026-09-21T09:00:33.207687Z"}}